Regional Weather Roundup
Issued by NWS

Home | Current Version | Previous Version | Graphics & Text | Print | Product List | Glossary On
Versions: 1 2 3 4 5 6 7 8 9 10 11 12 13 14 15 16 17 18 19 20 21 22 23 24 25 26 27 28 29 30 31 32 33 34 35 36 37 38 39 40 41 42 43 44 45 46 47 48 49 50
000
ASUS43 KMPX 122001
RWRMN
WEATHER ROUNDUP FOR MINNESOTA
NATIONAL WEATHER SERVICE TWIN CITIES/CHANHASSEN MN
300 PM CDT SAT JUL 12 2014


NOTE: "FAIR" INDICATES FEW OR NO CLOUDS BELOW 12,000 FEET WITH NO
SIGNIFICANT WEATHER AND/OR OBSTRUCTIONS TO VISIBILITY. N/A MEANS
CURRENT SKY AND/OR WEATHER CONDITIONS ARE NOT AVAILABLE.

MNZ060>063-068>070-122100-
   Twin Cities Metro

CITY           SKY/WX    TMP DP  RH WIND       PRES   REMARKS
TWIN CITIES    LGT RAIN  70  68  93 W10       30.01R
ST PAUL        LGT RAIN  70  67  90 S7        30.00F
CRYSTAL        LGT RAIN  72  68  87 SW12      29.99S
BLAINE         LGT RAIN  73  72  94 SW8         N/A
LAKEVILLE      LGT RAIN  68  66  94 NW16      29.98F
EDEN PRAIRIE   LGT RAIN  69  68  96 SW8       30.00F FOG
SOUTH ST PAUL  LGT RAIN  68  65  91 CALM      30.00F
LAKE ELMO      TSTM      68  66  94 SW13      30.02R
$$
MNZ001>005-007-008-013>017-022>024-027-028-122100-
   Northwest Minnesota

CITY           SKY/WX    TMP DP  RH WIND       PRES   REMARKS
BEMIDJI        CLOUDY    73  56  55 W14       29.97F
HALLOCK        SUNNY     79  54  41 W21G26    29.89F
ROSEAU         MOSUNNY   75  55  50 W15G22    29.88F
WARROAD        MOSUNNY   75  57  53 W14G22    29.88F
THIEF RVR FALL PTSUNNY   73  55  53 MISG      29.94F
CROOKSTON      PTSUNNY   77  57  50 W15G21    29.95F
FOSSTON        CLOUDY    72  54  53 SW13      29.98F
MOORHEAD       PTSUNNY   79  57  47 W9        29.99F
PARK RAPIDS    CLOUDY    75  58  55 W14       29.98F
$$
MNZ006-009>011-018-025>026-122100-
   North Central Minnesota

CITY           SKY/WX    TMP DP  RH WIND       PRES   REMARKS
BAUDETTE       PTSUNNY   76  55  48 SW16G24   29.90F
FLAG ISLAND    MOSUNNY   73  52  46 SW18G28   29.83F HAZE
INTL FALLS     PTSUNNY   74  56  53 W8        29.90F
WASKISH        PTSUNNY   73  61  64 SW13G20   29.94F
BIG FORK       CLOUDY    75  55  50 SW7       29.95F
LONGVILLE      CLOUDY    73  61  64 SW5       29.97F
GRAND RAPIDS   CLOUDY    73  57  56 SW9       29.97F
CRANE LAKE     CLOUDY    73  55  53 SW7       29.92F
ORR            CLOUDY    75  52  43 W7        29.90F
COOK           CLOUDY    73  55  53 SW8       29.94F
$$
MNZ012-019>021-037-122100-
   Northeast Minnesota

CITY           SKY/WX    TMP DP  RH WIND       PRES   REMARKS
DULUTH         CLOUDY    73  57  57 W6        29.96F
ELY            CLOUDY    72  55  56 SW7       29.94F
HIBBING        CLOUDY    74  57  55 W9        29.96F
EVELETH        CLOUDY    72  55  56 W8        29.97F
DULUTH HARBOR  CLOUDY    73  61  64 SE6       29.95F
TWO HARBORS    CLOUDY    72  57  60 S3        29.93F
SILVER BAY     CLOUDY    72  61  68 W3        29.93F
GRAND MARAIS     N/A     53  48  83 W3        29.92F
G MARAIS ARPRT CLOUDY    66  54  63 S8        29.97F
$$
MNZ029>031-032-039>041-046>048-054>057-064-122100-
   West Central Minnesota

CITY           SKY/WX    TMP DP  RH WIND       PRES   REMARKS
FERGUS FALLS   PTSUNNY   73  55  53 W7        30.00F
WHEATON        CLOUDY    72  61  68 W5        30.03F
MORRIS         CLOUDY    73  63  68 W3        30.00F
ALEXANDRIA     CLOUDY    70  61  73 W9        30.03F
WADENA         CLOUDY    72  57  60 W10G16    30.00F
GLENWOOD       CLOUDY    70  63  78 W7        30.02F
APPLETON       CLOUDY    73  63  68 NW6       30.00F
BENSON         CLOUDY    70  63  78 N6        30.01F
ORTONVILLE     CLOUDY    73  63  68 W3        30.01F
MADISON        CLOUDY    73  64  73 CALM      30.01F
WILLMAR        LGT RAIN  72  63  73 NW7       30.02F
$$
MNZ033>034-036-042>043-049>051-058-059-122100-
   Central Minnesota

CITY           SKY/WX    TMP DP  RH WIND       PRES   REMARKS
ST CLOUD       LGT RAIN  71  65  81 NW5       30.01R
SAUK CENTRE    FAIR      68  63  85 W6        30.01F
PAYNESVILLE    LGT RAIN  65  63  91 W3        30.02F
AITKIN         CLOUDY    73  63  68 CALM      29.98F
PINE RIVER     CLOUDY    72  61  68 W10       30.02F
BRAINERD       CLOUDY    76  59  55 W10       29.99F
STAPLES        CLOUDY    72  61  68 W9        30.00F
LONG PRAIRIE   CLOUDY    68  61  77 SW9       30.02F
LITTLE FALLS   CLOUDY    70  59  68 W5        30.00F
LITCHFIELD     LGT RAIN  73  70  88 W6        30.02F
BUFFALO        CLOUDY    71  62  73 SW3       30.01F
MAPLE LAKE     CLOUDY    72  67  82 W6        30.02F
$$
MNZ037-044-045-052-053-122100-
   East Central Minnesota

CITY           SKY/WX    TMP DP  RH WIND       PRES   REMARKS
PRINCETON      LGT RAIN  73  66  78 W6        30.01R
MORA           LGT RAIN  70  63  78 W3        30.02R
CAMBRIDGE      LGT RAIN  75  63  64 W7        29.98S
RUSH CITY      CLOUDY    73  64  74 W3        29.98S
MOOSE LAKE     CLOUDY    72  61  68 SW3       29.96F
HINCKLEY       FAIR      72  64  78 W5        29.99R
CLOQUET        CLOUDY    73  55  53 CALM      29.97F
MCGREGOR       CLOUDY    72  57  60 W6        29.99S
$$
MNZ071>073-080-081-089-090-097-098-122100-
   Southwest Minnesota

CITY           SKY/WX    TMP DP  RH WIND       PRES   REMARKS
MONTEVIDEO     LGT RAIN  72  68  88 CALM      30.01F
GRANITE FALLS  CLOUDY    70  61  74 NW5       30.03F
CANBY          LGT RAIN  70  64  81 CALM      30.02F
MARSHALL       CLOUDY    70  64  83 N6        30.02F
REDWOOD FALLS  CLOUDY    71  68  90 NW9       30.01F
OLIVIA         CLOUDY    72  64  78 NW6       30.01F
PIPESTONE      MOSUNNY   75  63  64 N6        30.04F
WINDOM         PTSUNNY   79  64  61 N12G18    30.03F
WORTHINGTON    MOSUNNY   75  64  69 NW8       30.04F
JACKSON        CLOUDY    75  64  69 SW3       30.03F
TRACY          PTSUNNY   71  67  88 NW9       30.04S
SLAYTON        MOSUNNY   76  64  67 CALM      30.04F
$$
MNZ065>067-074>077-082>085-091>093-122100-
   South Central Minnesota

CITY           SKY/WX    TMP DP  RH WIND       PRES   REMARKS
MANKATO        CLOUDY    70  64  83 NW5       30.01F
NEW ULM        CLOUDY    72  68  88 NW6       30.02S
ST JAMES       PTSUNNY   77  66  69 NW3       30.02F
FAIRMONT       CLOUDY    75  63  64 W8        30.01F
GLENCOE        DRIZZLE   72  67  84 NW3       30.02F
FARIBAULT      CLOUDY    75  64  69 W8        30.00F
OWATONNA       CLOUDY    73  66  78 W7        30.00F
WASECA         CLOUDY    72  63  73 W6        30.02F
ALBERT LEA     LGT RAIN  68  66  94 SW6       30.02F
$$
MNZ078>079-086>088-094>096-122100-
   Southeast Minnesota

CITY           SKY/WX    TMP DP  RH WIND       PRES   REMARKS
ROCHESTER      HVY RAIN  67  64  90 SW9       30.04S FOG
RED WING       CLOUDY    75  66  73 W12       29.98R
STANTON        CLOUDY    72  67  84 W8        29.98F
DODGE CENTER   CLOUDY    73  66  78 SW13      30.01F
WINONA         CLOUDY    73  70  88 NW5       29.97F
AUSTIN         LGT RAIN  66  64  94 CALM      30.03F
PRESTON        LGT RAIN  66  63  92 W15       30.06R
$$
ABBREVIATIONS USED IN REMARKS
   TC - TEMPERATURES IN CELSIUS
  WCI - WIND CHILL INDEX
   HX - HEAT INDEX
  VSB - VISIBILITY
$$



USA.gov is the U.S. government's official web portal to all federal, state and local government web resources and services.